761  
ASUS41 KAKQ 200015  
RWRAKQ  
 
REGIONAL WEATHER ROUNDUP  
NATIONAL WEATHER SERVICE WAKEFIELD VA  
800 PM EDT WED SEP 19 2018  
 
NOTE: "FAIR" INDICATES FEW OR NO CLOUDS BELOW 12,000 FEET WITH NO  
SIGNIFICANT WEATHER AND/OR S TO VISIBILITY
. * = DENOTES  
STATION MAY NOT REPORT PRECIPITATION (E.G., RAIN,SNOW,ETC.),
 
THUNDER OR FOG.  
 
VAZ042-051-052>054-056-200100-  
NORTHERN VIRGINIA  
 
CITY SKY/WX TMP DP RH WIND PRES REMARKS
 
WASH NATIONAL FAIR 81 65 58 NE5 29.97R  
DULLES FAIR 78 60 53 N7 29.99R  
FORT BELVOIR NOT AVBL  
QUANTICO FAIR 76 74 93 NW6 29.98R  
FREDERICKSBRG* FAIR 76 75 95 CALM 29.96R  
STAFFORD* FAIR N/A N/A N/A CALM 30.01R HAZE  
WARRENTON FAIR 72 68 87 CALM 29.98R  
CULPEPER* FAIR 73 71 93 CALM 29.99R  
MANASSAS* FAIR 74 71 91 CALM 29.98R  
LEESBURG* FAIR 79 68 69 CALM 30.00R  
WINCHESTER FAIR 70 64 83 CALM 30.02R  
FRONT ROYAL* FAIR 73 72 94 CALM 30.00R  
LURAY* FAIR 70 70 100 CALM 30.02R FOG  

 
 
VAZ048-049-060>072-079>083-200100-  
CENTRAL AND SOUTH CENTRAL VIRGINIA  
 
CITY SKY/WX TMP DP RH WIND PRES REMARKS
 
RICHMOND FAIR 79 70 74 NE3 29.97R  
CHESTERFIELD* FAIR 76 71 85 CALM 29.98R  
PETERSBURG* FAIR 73 72 94 CALM 29.98R  
HANOVER FAIR 74 73 97 CALM 29.98R  
TAPPAHANNOCK* FAIR 73 71 94 CALM 29.98R  
QUINTON* FAIR 74 74 100 CALM 29.96R  
CHARLOTTSVILLE FAIR 75 69 81 CALM 30.00R  
GORDONSVILLE* MOCLDY 74 74 100 CALM 29.99R  
ORANGE* MOCLDY 73 72 94 CALM 29.99R  
LOUISA* FAIR 72 71 97 CALM 30.04R  
BUMPASS* FAIR 72 70 95 CALM 29.99R  
FARMVILLE* RAIN 73 70 92 CALM 30.01R  
CREWE* MOCLDY N/A N/A N/A CALM 29.99R  
FORT PICKETT* MOCLDY 74 74 100 CALM 29.99R  
CHASE CITY* FAIR 74 74 100 CALM 30.00R  
CLARKSVILLE* FAIR 77 75 94 CALM 29.98R  
SOUTH HILL* FAIR 75 75 100 CALM 30.04R  
LAWRENCEVILLE* FAIR 74 73 96 CALM 29.98R  
EMPORIA* N/A 75 73 94 CALM 29.98  

 
 
VAZ088>098-200100-  
SOUTHEAST VIRGINIA  
 
CITY SKY/WX TMP DP RH WIND PRES REMARKS
 
NORFOLK FAIR 80 68 66 N10 29.95R  
VIRGINIA BEACH FAIR 75 70 84 NE6 29.95R  
NORFOLK NAVAL FAIR 80 67 64 N9 29.97R  
WEST POINT* FAIR 75 72 89 NE5 29.97S  
SALUDA* FAIR 75 71 86 CALM 29.96R  
NEWPORT NEWS FAIR 75 70 84 NE5 29.96R  
LANGLEY AFB NOT AVBL  
FORT EUSTIS NOT AVBL  
WILLIAMSBURG* FAIR 75 72 88 CALM 29.97R  
HR EXEC AP* FAIR 71 70 96 NE3 29.97R  
FRANKLIN* FAIR 74 73 99 CALM 29.97R  
US460-WAKEFLD FAIR 74 71 91 CALM 29.96R  

 
 
VAZ020-022-025-037-045-200100-  
WEST CENTRAL AND SOUTHWEST VIRGINIA  
 
CITY SKY/WX TMP DP RH WIND PRES REMARKS
 
STAUNTON* MOCLDY 71 68 89 CALM 30.06R  
WAYNESBORO* FAIR 70 70 99 CALM 30.05R  
HOT SPRINGS VA FAIR 71 64 80 NW6 30.18R  
LYNCHBURG FAIR 72 70 93 CALM 30.01R  
DANVILLE FAIR 73 70 90 CALM 29.99R  
SOUTH BOSTON* FAIR 74 73 95 CALM 29.99R  
MARTINSVILLE FAIR 72 72 100 CALM 30.04R  
ROANOKE FAIR 77 67 71 CALM 30.03R  
BLACKSBURG FAIR 72 68 89 CALM 30.12R  
DUBLIN* FAIR 74 66 77 CALM 30.10S  
MARION* FAIR 73 69 88 CALM 30.15R  
HILLSVILLE* FAIR 75 64 70 N3 30.11S  
RICHLANDS* FAIR 73 64 75 CALM 30.14R  
WISE* FAIR 73 68 83 CALM 30.14R  
ABINGDON* FAIR 75 71 87 CALM 30.09S  

 
 
MDZ021>025-VAZ099-100-200100-  
SOUTHERN MARYLAND AND THE DELMARVA PENINSULA  
 
CITY SKY/WX TMP DP RH WIND PRES REMARKS
 
PATUXENT RIVER FAIR 77 67 71 E3 29.95S  
BAY BRIDGE APT FAIR 75 68 78 CALM 29.96R  
LEONARDTOWN FAIR 70 68 94 CALM 29.98S  
DOVER NOT AVBL  
GEORGETOWN FAIR 73 70 90 E5 29.97R  
EASTON CLEAR 75 68 78 CALM 29.99S  
CAMBRIDGE CLEAR 73 70 88 CALM 29.97R  
SALISBURY FAIR 74 72 93 E3 29.96R  
TANGIER FAIR 81 72 74 N9 29.96R  
OCEAN CITY FAIR 73 68 84 E6 29.97R  
WALLOPS ISLAND FAIR 76 68 76 NE10 29.96S  
ACCOMACK* FAIR 74 72 92 E3 29.96R  

 
 
NCZ012>017-030>032-200100-  
NORTH CENTRAL AND EASTERN NORTH CAROLINA  
 
CITY SKY/WX TMP DP RH WIND PRES REMARKS
 
ROANOKE RAPIDS FAIR 72 72 100 CALM 29.97S  
RALEIGH FAIR 77 70 79 CALM 29.98S  
ELIZABETH CITY FAIR 79 71 76 N8 29.95R  
AHOSKIE* FAIR 74 73 96 CALM 29.96S  
EDENTON* FAIR 77 73 87 CALM 29.96R  
CURRITUCK* NOT AVBL  
KILL DEVIL HLS FAIR 77 67 71 N6 29.95R  
MANTEO FAIR 77 69 76 NE7 29.95S  
CAPE HATTERAS FAIR 81 69 67 N10G20 29.94R  
TARBORO* NOT AVBL  
GOLDSBORO NOT AVBL  
WASHINGTON FAIR 76 71 85 CALM 29.96R  
GREENVILLE FAIR 77 73 88 CALM 29.98S  
NEW BERN FAIR 78 70 76 N3 29.96R  
WILMINGTON FAIR 80 68 66 CALM 29.95R  

 
 
VAZ048-200100-  
ELSEWHERE  
 
CITY SKY/WX TMP DP RH WIND PRES REMARKS
 
HARRISBURG PA FAIR 73 65 75 CALM 29.99R  
BALTIMORE FAIR 75 67 76 N5 29.97R  
ANNAPOLIS FAIR 78 70 76 N3 29.97R  
ANDREWS AFB NOT AVBL  
PHILADELPHIA FAIR 78 62 57 VRB7 29.97R  
HENDERSON NC FAIR 72 68 88 CALM 29.99R  
GREENSBORO FAIR 81 68 64 CALM 30.00R  
ROCKY MOUNT FAIR 75 72 90 CALM 29.97R  

 
 
VAZ100-200100-  
MARINE  
 
STATION/POSITION TIME TEMP WIND PRES WAVE SWELL
 
AIR SEA DIR/SP/G HT/PER HT/PER  
(UTC) (F) (DEG/KT/KT) (MB) (FT/S) (FT/S)  
BRANDYWINE LGT 2336 75 110/ 10/ 11 1014.8R  
CAPE MAY NJ 2348 72 77 80/ 4/ 7 1014.1R  
LEWES DE 2336 74 78 130/ 6/ 8 1014.5R  
15NM E FENWICK I 2350 75 1014.3R 3/ 5 2/10  
OCEAN-CITY-INLET 2336 74 77 70/ 7/ 10 1015.0R  
WACHAPREAGUE VA 2342 75 81 50/ 9/ 12 1014.5R  
THOMAS POINT MD 0000 78 76 340/ 4/ 4 1015.6R  
GOOSES REEF MD 0000 79 77 60/ 2/ 4 1014.6  
COVE POINT MD 2342 78 40/ 7/ 8 1015.0R  
SOLOMONS ISLAND 2342 77 79 30/ 5/ 6 1014.2S  
BISHOPS HEAD MD 2336 77 83 330/ 5/ 6 1015.0R  
PINEY POINT MD 2342 70/ 4/ 5 N/A  
POTOMAC MD 0000 78 79 20/ 6/ 8 1013.7  
CAMBRIDGE MD 2336 77 79 1015.4R  
LEWISETTA VA 2342 79 79 30/ 6/ 9 1014.4R  
RAPPAHANNOCK LGT 2342 60/ 9/ 14 1014.9R  
STINGRAY PT 0000 79 80 20/ 8/ 10 1015.0 2/ 3  
YORK RVR RNG VA 2342 80 20/ 11/ 12 1014.9R  
YORKTOWN VA 2342 79 81 40/ 8/ 9 1014.1R  
DOMINION TERM VA 2342 80 30/ 2/ 4 1014.7R  
KIPTOPEKE VA 2336 80 80/ 4/ 4 N/A  
CAPE HENRY VA 2342 77 50/ 10/ 11 1012.8R  
WILLOUBY STN VA 2342 81 10/ 10/ 13 1013.8R  
CAPE HENRY BUOY 0000 79 N/A 2/ 5  
1ST LANDING BUOY 0000 78 80 90/ 10/ 12 1014.0 2/ 3  
64NM E OF VA BCH 2350 75 76 30/ 16/ 19 1013.8R 5/ 5 2/10  
DUCK PIER NC 2342 80 79 10/ 15/ 18 1013.5R  
44100 DUCK FRF 2345 79 N/A 3/ 5 2/11  
44056 DUCK FRF 0000 78 N/A 3/ 5  
OREGON INLET NC 2342 78 81 350/ 12/ 15 1013.8R  
HATTERAS NC 2342 80 81 20/ 15/ 19 1013.5S  
DIAMOND SHLS NC 0000 80 81 10/ 19/ 25 1014.0  
CAPE LOOKOUT NC 0000 360/ 7/ 8 1014.3R  

 
 
 
CLICK HERE TO GO TO PREVIOUS BULLETINS.

The Nexlab VA Page
The Nexlab NC Page
The Nexlab MD Page Main Text Page